sat.trackr.live / text

‹ back to catalog

DAQI-1

NORAD 52257 · 2022-039A

PAYLOAD ACTIVE UNKNOWN

§ Identity

Operator
Country
PRC
Launch date
2022-04-15
Launch site
TAISC
Launch vehicle
Mass (kg)
RCS (m²)

External: N2YO · Heavens-Above · Gunter

§ Orbital elements

Epoch: 2026-09-20T23:15:53.345952Z

Period
98.78 min
Inclination
98.1521°
Eccentricity
0.0003224
Mean motion
14.57722877 rev/d
Perigee alt
698.3 km
Apogee alt
702.8 km
Semi-major
7,078.7 km
B*
3.5542e-5
RAAN
200.8600°
Arg perigee
339.8466°
Mean anomaly
20.2605°
Rev number
23,589

§ Raw data

DAQI-11 52257U 22039A   26263.96936743  .00000117  00000+0  35542-4 0  99942 52257  98.1521 200.8600 0003224 339.8466  20.2605 14.57722877235897

JSON: /api/v1/satellites/52257 · /tle

For live sub-satellite position, see the globe view (requires WebGL).

§ Visibility from observer

Set your observer location to see the next 7 days of passes ≥ 10°. The values pass through the URL so the page stays shareable.

No JS? Fill the form by hand. The geolocation button needs JavaScript.

§ Radio — SatNOGS DB

ModeDescriptionDownlinkUplink
FM S-band telemetry 2.236 GHz

1 transmitter · refreshed weekly from db.satnogs.org